Omaha Offutt, NE

4:54 AM CST on November 18, 2017 (GMT -0600)
Offutt Air Force Base

Weather History for KOFF - September, 2014

Change the Weather History Date:

Tuesday, September 9, 2014

  Actual Average Record
Temperature  
Mean Temperature 72 °F -  
Max Temperature 77 °F 78 °F 98 °F (2013)
Min Temperature 66 °F 58 °F 39 °F (2008)
Cooling Degree Days 6    
Growing Degree Days 22 (Base 50)    
Moisture  
Dew Point 70 °F    
Average Humidity 99    
Maximum Humidity 100    
Minimum Humidity 92    
Precipitation  
Precipitation 2.31 in - - ()
Sea Level Pressure  
Sea Level Pressure 29.70 in    
Wind  
Wind Speed 8 mph (ENE)    
Max Wind Speed 25 mph    
Max Gust Speed 34 mph    
Visibility 7 miles    
Events Fog , Rain , Thunderstorm    
Averages and records for this station are not official NWS values.
T = Trace of Precipitation, MM = Missing Value Source: NWS Daily Summary

Daily Weather History Graph

Daily Weather History Graph

Search for Another Location

Airport or City:

Trip Planner

Search our weather history database for the weather conditions in past years. The results will help you decide how hot, cold, wet, or windy it might be!

Date:

Astronomy

Sep. 09, 2014 Rise Set
Actual Time 6:58 AM CDT 7:42 PM CDT
Civil Twilight 6:30 AM CDT 8:10 PM CDT
Nautical Twilight 5:57 AM CDT 8:43 PM CDT
Astronomical Twilight 5:23 AM CDT 9:17 PM CDT
Moon 8:02 PM CDT (9/9) 7:36 AM CDT (9/9)
Length of Visible Light 13h 40m
Length of Day
12h 44m
Waxing Gibbous, 99% of the Moon is Illuminated
Sep 9
Waxing Gibbous
Sep 15
Last Quarter
Sep 24
New
Oct 1
First Quarter
Oct 8
Full

Hourly Weather History & Observations

Time (CDT) Temp. Dew Point Humidity Pressure Visibility Wind Dir Wind Speed Gust Speed Precip Events Conditions
12:58 AM 74.1 °F 72.0 °F 93% 29.80 in 10.0 mi SSE 10.4 mph - N/A   Clear
1:58 AM 72.7 °F 72.3 °F 99% 29.80 in 10.0 mi SSE 9.2 mph - N/A   Clear
2:58 AM 71.4 °F 71.1 °F 99% 29.80 in 10.0 mi SSE 5.8 mph - N/A   Clear
3:58 AM 69.6 °F 69.6 °F 100% 29.79 in 10.0 mi SE 5.8 mph - N/A   Clear
4:58 AM 69.1 °F 69.1 °F 100% 29.78 in 10.0 mi SSE 6.9 mph - N/A   Clear
5:58 AM 67.6 °F 67.6 °F 100% 29.78 in 10.0 mi SE 5.8 mph - N/A   Clear
6:58 AM 66.6 °F 66.6 °F 100% 29.78 in 10.0 mi East 4.6 mph - N/A   Clear
7:58 AM 68.7 °F 68.7 °F 100% 29.78 in 10.0 mi Calm Calm - N/A   Clear
8:58 AM 72.3 °F 72.3 °F 100% 29.77 in 10.0 mi Calm Calm - N/A   Clear
9:58 AM 77.2 °F 75.0 °F 93% 29.76 in 10.0 mi Calm Calm - N/A   Clear
10:58 AM 77.5 °F 75.0 °F 92% 29.77 in 10.0 mi Calm Calm - N/A   Partly Cloudy
11:22 AM 77.0 °F 75.2 °F 94% 29.77 in 10.0 mi SSE 1.2 mph - N/A Rain Light Rain
11:38 AM 75.2 °F 73.4 °F 94% 29.76 in 2.5 mi Calm Calm - N/A Rain Heavy Rain
11:45 AM 75.2 °F 75.2 °F 100% 29.77 in 3.0 mi Variable 2.3 mph - N/A Rain , Thunderstorm Light Thunderstorms and Rain
11:46 AM 75.2 °F 73.4 °F 94% 29.77 in 3.0 mi ESE 4.6 mph - N/A Rain , Thunderstorm Light Thunderstorms and Rain
11:58 AM 74.5 °F 74.3 °F 99% 29.74 in 10.0 mi ENE 1.2 mph - 0.29 in Thunderstorm Mostly Cloudy
12:58 PM 75.4 °F 72.9 °F 92% 29.76 in 10.0 mi Calm Calm - N/A   Partly Cloudy
1:02 PM 75.2 °F 73.4 °F 94% 29.77 in 10.0 mi Calm Calm - N/A Rain Light Rain
2:51 PM 73.4 °F 73.4 °F 100% 29.72 in 10.0 mi East 8.1 mph - N/A Rain Light Rain
2:58 PM 74.1 °F 74.1 °F 100% 29.70 in 5.0 mi ENE 10.4 mph - 0.02 in Rain , Thunderstorm Light Thunderstorms and Rain
3:30 PM 73.4 °F 73.4 °F 100% 29.63 in 10.0 mi ENE 10.4 mph - N/A Thunderstorm Thunderstorm
3:43 PM 73.4 °F 73.4 °F 100% 29.69 in 10.0 mi NW 16.1 mph - N/A Thunderstorm Thunderstorm
3:44 PM 73.4 °F 73.4 °F 100% 29.69 in 9.0 mi NW 17.3 mph 23.0 mph N/A Rain , Thunderstorm Thunderstorms and Rain
3:48 PM 73.4 °F 73.4 °F 100% 29.70 in 1.5 mi NW 25.3 mph 34.5 mph N/A Rain , Thunderstorm Heavy Thunderstorms and Rain
3:55 PM 71.6 °F 71.6 °F 100% 29.74 in 0.5 mi West 12.7 mph 34.5 mph N/A Fog , Rain , Thunderstorm Heavy Thunderstorms and Rain
3:56 PM 69.8 °F 69.8 °F 100% 29.74 in 0.2 mi WNW 12.7 mph 34.5 mph N/A Fog , Rain , Thunderstorm Heavy Thunderstorms and Rain
3:58 PM 69.8 °F 69.8 °F 100% 29.75 in 0.2 mi Variable 5.8 mph 18.4 mph 0.46 in Fog , Rain , Thunderstorm Heavy Thunderstorms and Rain
4:05 PM 69.8 °F 69.8 °F 100% 29.71 in 0.2 mi WSW 10.4 mph 18.4 mph N/A Fog , Rain , Thunderstorm Heavy Thunderstorms and Rain
4:06 PM 69.8 °F 69.8 °F 100% 29.71 in 0.2 mi WSW 10.4 mph 18.4 mph N/A Fog , Rain , Thunderstorm Heavy Thunderstorms and Rain
4:07 PM 69.8 °F 69.8 °F 100% 29.71 in 0.5 mi WSW 9.2 mph - N/A Fog , Rain , Thunderstorm Heavy Thunderstorms and Rain
4:09 PM 69.8 °F 69.8 °F 100% 29.72 in 0.5 mi Variable 3.5 mph - N/A Fog , Rain , Thunderstorm Heavy Thunderstorms and Rain
4:10 PM 69.8 °F 69.8 °F 100% 29.71 in 1.0 mi Variable 2.3 mph - N/A Rain , Thunderstorm Heavy Thunderstorms and Rain
4:11 PM 69.8 °F 69.8 °F 100% 29.71 in 1.5 mi NE 3.5 mph - N/A Rain , Thunderstorm Heavy Thunderstorms and Rain
4:12 PM 69.8 °F 69.8 °F 100% 29.70 in 2.5 mi NE 5.8 mph - N/A Rain , Thunderstorm Heavy Thunderstorms and Rain
4:13 PM 69.8 °F 69.8 °F 100% 29.69 in 3.0 mi NE 6.9 mph - N/A Rain , Thunderstorm Heavy Thunderstorms and Rain
4:16 PM 69.8 °F 69.8 °F 100% 29.69 in 4.0 mi ENE 10.4 mph - N/A Rain , Thunderstorm Heavy Thunderstorms and Rain
4:27 PM 69.8 °F 69.8 °F 100% 29.69 in 10.0 mi North 5.8 mph - N/A Rain , Thunderstorm Light Thunderstorms and Rain
4:28 PM 69.8 °F 69.8 °F 100% 29.69 in 10.0 mi North 5.8 mph - N/A Rain , Thunderstorm Light Rain
4:29 PM 69.8 °F 69.8 °F 100% 29.69 in 10.0 mi NNW 5.8 mph - N/A Thunderstorm Scattered Clouds
4:41 PM 69.8 °F 69.8 °F 100% 29.69 in 10.0 mi East 6.9 mph - N/A Thunderstorm Scattered Clouds
4:58 PM 70.2 °F 70.2 °F 100% 29.67 in 10.0 mi ENE 8.1 mph - 1.20 in   Scattered Clouds
5:05 PM 71.6 °F 71.6 °F 100% 29.68 in 10.0 mi Variable 6.9 mph - N/A   Scattered Clouds
5:26 PM 71.6 °F 71.6 °F 100% 29.66 in 10.0 mi ENE 10.4 mph 18.4 mph N/A   Mostly Cloudy
5:31 PM 71.6 °F 71.6 °F 100% 29.66 in 10.0 mi ENE 11.5 mph 18.4 mph N/A   Mostly Cloudy
5:58 PM 71.6 °F 71.6 °F 100% 29.65 in 10.0 mi East 12.7 mph - N/A   Partly Cloudy
6:34 PM 71.6 °F 71.6 °F 100% 29.63 in 10.0 mi ENE 4.6 mph - N/A   Mostly Cloudy
6:48 PM 71.6 °F 71.6 °F 100% 29.61 in 10.0 mi ENE 10.4 mph - N/A   Mostly Cloudy
6:58 PM 71.1 °F 71.1 °F 100% 29.60 in 10.0 mi East 11.5 mph - N/A   Mostly Cloudy
7:46 PM 69.8 °F 69.8 °F 100% 29.66 in 10.0 mi NNE 13.8 mph - N/A   Overcast
7:58 PM 69.8 °F 69.8 °F 100% 29.69 in 10.0 mi North 12.7 mph 17.3 mph N/A   Overcast
8:01 PM 69.8 °F 69.8 °F 100% 29.68 in 10.0 mi NE 15.0 mph 24.2 mph N/A   Overcast
8:10 PM 69.8 °F 68.0 °F 94% 29.64 in 10.0 mi NE 12.7 mph 24.2 mph N/A Rain Light Rain
8:26 PM 68.0 °F 68.0 °F 100% 29.63 in 10.0 mi NE 15.0 mph 26.5 mph N/A   Mostly Cloudy
8:29 PM 68.0 °F 68.0 °F 100% 29.63 in 10.0 mi ENE 17.3 mph - N/A   Scattered Clouds
8:58 PM 68.9 °F 68.5 °F 99% 29.61 in 10.0 mi NE 12.7 mph 20.7 mph 0.00 in   Scattered Clouds
9:01 PM 69.8 °F 68.0 °F 94% 29.62 in 10.0 mi NE 10.4 mph 18.4 mph N/A Rain Light Rain
9:53 PM 68.0 °F 68.0 °F 100% 29.69 in 2.5 mi East 8.1 mph - N/A Rain , Thunderstorm Heavy Rain
9:54 PM 68.0 °F 68.0 °F 100% 29.68 in 2.5 mi ENE 8.1 mph - N/A Rain , Thunderstorm Heavy Rain
9:58 PM 68.2 °F 68.2 °F 100% 29.67 in 2.5 mi ENE 6.9 mph - 0.10 in Rain Heavy Rain
10:01 PM 68.0 °F 68.0 °F 100% 29.67 in 3.0 mi NE 6.9 mph - N/A Rain Heavy Rain
10:03 PM 68.0 °F 68.0 °F 100% 29.67 in 4.0 mi NNE 6.9 mph - N/A Rain , Thunderstorm Heavy Thunderstorms and Rain
10:07 PM 68.0 °F 68.0 °F 100% 29.67 in 6.0 mi NE 12.7 mph - N/A Rain , Thunderstorm Heavy Thunderstorms and Rain
10:21 PM 68.0 °F 68.0 °F 100% 29.67 in 2.5 mi ENE 6.9 mph - N/A Rain , Thunderstorm Thunderstorms and Rain
10:22 PM 68.0 °F 68.0 °F 100% 29.66 in 2.5 mi ENE 8.1 mph - N/A Rain , Thunderstorm Thunderstorms and Rain
10:26 PM 68.0 °F 68.0 °F 100% 29.67 in 2.0 mi ENE 9.2 mph - N/A Rain , Thunderstorm Heavy Thunderstorms and Rain
10:29 PM 68.0 °F 68.0 °F 100% 29.66 in 2.5 mi East 12.7 mph - N/A Rain , Thunderstorm Heavy Thunderstorms and Rain
10:31 PM 68.0 °F 68.0 °F 100% 29.65 in 3.0 mi East 12.7 mph - N/A Rain , Thunderstorm Thunderstorms and Rain
10:40 PM 68.0 °F 68.0 °F 100% 29.62 in 3.0 mi East 9.2 mph - N/A Rain , Thunderstorm Thunderstorms and Rain
10:58 PM 67.6 °F 67.6 °F 100% 29.61 in 9.0 mi NE 6.9 mph - 0.22 in Rain Light Rain
11:17 PM 68.0 °F 68.0 °F 100% 29.63 in 10.0 mi East 8.1 mph - N/A   Mostly Cloudy
11:58 PM 68.2 °F 68.2 °F 100% 29.62 in 10.0 mi East 6.9 mph - 0.02 in   Mostly Cloudy